[[{"header":{"parameterUnit":"m.s-1","parameterCategory":1,"la1":30.2991,"la2":30.254,"lo1":-89.0895,"lo2":-89.0444,"dy":0.0017,"dx":0.0017,"nx":28,"ny":28,"refTime":"2024-07-11T03:00:00:Z","depth":0,"parameterNumber":2,"parameterNumberName":"U-component_of_WINDS"},"data":[0,0,0,0,0,0,0,0,0,0,0,0,0,0,0,0,0,0,0,0,0,0,0,0,0,0,0,0,0,0,0,0,0,0,0,0,0,0,0,0,0,0,0,0,0,0,0,0,0,0,0,0,0,0,0,0,0,0,2.2715,2.2716,0,2.2807,2.2808,2.2809,2.2805,2.2804,2.2803,2.2802,2.2901,2.2905,2.2909,0,0,0,0,0,0,0,0,0,0,0,0,0,2.2538,2.2542,2.2715,2.2716,2.2717,2.2807,2.2808,2.281,2.2806,2.2804,2.2803,2.2801,2.29,2.2904,2.2909,0,0,0,0,0,0,0,0,0,0,0,0,0,2.2621,2.2543,2.2715,2.2726,2.2728,2.2807,2.2808,2.281,2.2806,2.2804,2.2802,2.28,2.2898,2.2904,2.291,2.2985,0,0,2.2927,2.293,0,0,0,0,0,0,0,0,2.2617,2.2628,2.2723,2.2725,2.2728,2.2793,2.2783,2.2869,2.2807,2.2777,2.2802,2.2799,2.2867,2.2875,2.2897,2.299,2.2994,2.2928,2.2931,2.2934,2.2935,0,0,0,0,0,0,0,2.2611,2.2624,2.2752,2.2724,2.2727,2.2727,2.2737,2.2799,2.2832,2.2779,2.2779,2.279,2.2868,2.2891,2.2899,2.2995,2.2928,2.2933,2.2936,2.2939,2.3153,2.3155,0,0,0,0,0,0,2.2602,2.2619,2.2749,2.2754,2.2666,2.2732,2.2743,2.2774,2.2831,2.2838,2.2791,2.2789,2.2882,2.2892,2.2903,2.2994,2.2934,2.2939,2.2943,2.3151,2.3154,2.3156,0,0,0,0,0,0,2.2598,2.2614,2.2745,2.2687,2.2703,2.2737,2.2772,2.2777,2.28,2.284,2.2847,2.2809,2.2881,2.2895,2.2964,2.2997,2.2942,2.2947,2.3149,2.3152,2.3155,2.3177,0,0,0,0,0,0,2.2593,2.2612,2.2641,2.2687,2.2706,2.2804,2.2774,2.278,2.281,2.2808,2.2859,2.2865,2.2881,2.2955,2.297,2.3004,2.2952,2.3146,2.315,2.3154,2.3174,2.3181,2.3187,0,0,0,0,0,2.2587,2.2644,2.2642,2.2658,2.2742,2.2805,2.2817,2.2832,2.2812,2.2842,2.2867,2.2864,2.2991,2.2962,2.2979,2.3015,2.3144,2.3149,2.3154,2.3171,2.3179,2.3187,0,0,0,0,0,0,2.2603,2.2651,2.2649,2.2723,2.276,2.2805,2.2842,2.2841,2.2886,2.2882,2.2901,2.2912,2.2981,2.3006,2.2973,2.3091,2.3065,2.3074,2.3072,2.3081,2.3088,2.308,2.2957,0,0,0,0,0,2.2614,2.266,2.2701,2.2762,2.278,2.2808,2.2836,2.2844,2.2884,2.29,2.2931,2.2971,2.302,2.3052,2.3099,2.3177,2.3188,2.321,2.3217,2.3222,2.3229,2.3271,2.3281,2.3173,2.3173,2.3173,0,0,2.264,2.2672,2.27,2.2766,2.2796,2.2844,2.2821,2.2873,2.2909,2.2909,2.2975,2.2999,2.3045,2.3118,2.3153,2.3141,2.3262,2.3229,2.3232,2.3237,2.3277,2.3288,2.3297,2.3176,2.3175,2.3175,0,0,2.271,2.2739,2.2793,2.2822,2.2867,2.2885,2.2897,2.2942,2.2957,2.3024,2.3024,2.3068,2.3153,2.3185,2.3212,2.3293,2.3292,2.3309,2.3343,2.3384,2.3393,2.34,2.3428,2.3438,2.3315,2.3316,2.3316,0,2.2736,2.2807,2.2821,2.2873,2.2902,2.2901,2.2956,2.2985,2.3043,2.3064,2.3049,2.3154,2.3185,2.3265,2.3285,2.3307,2.3323,2.3303,2.339,2.3398,2.3405,2.3432,2.3443,2.3317,2.3317,2.3317,2.3317,0,2.2837,2.2886,2.2925,2.2979,2.3012,2.3065,2.3088,2.312,2.3125,2.3145,2.3212,2.3249,2.3303,2.3323,2.333,2.3405,2.3396,2.3386,2.336,2.3417,2.3443,2.3453,2.332,2.3319,2.3319,2.3318,0,0,2.292,2.298,2.2994,2.3018,2.3067,2.3106,2.3159,2.321,2.3237,2.3278,2.3323,2.3393,2.3383,2.3414,2.3425,2.346,2.3521,2.3446,2.3447,2.3458,2.3605,2.3611,2.3623,2.352,2.3522,2.3524,2.3601,0,2.2995,2.3088,2.3101,2.3183,2.3228,2.3229,2.3275,2.331,2.333,2.3372,2.3394,2.3443,2.3427,2.3446,2.3481,2.3506,2.3551,2.3501,2.3563,2.3565,2.3551,2.3637,2.3645,2.3715,2.3611,2.3613,2.3614,0,2.3095,2.3135,2.3221,2.3262,2.3282,2.3323,2.3371,2.3411,2.3451,2.3463,2.3497,2.3502,2.3558,2.353,2.3607,2.3573,2.3599,2.3615,2.3618,2.3624,2.3592,2.3645,2.3738,2.3748,2.363,2.3629,2.3628,0,2.3145,2.3222,2.3283,2.3304,2.3354,2.3383,2.3405,2.3443,2.3473,2.3515,2.3534,2.3583,2.3609,2.3647,2.3666,2.3644,2.3742,2.3716,2.3753,2.3752,2.3773,2.3772,2.3871,2.3791,2.3791,2.3791,2.3791,0,2.3227,2.328,2.3306,2.3344,2.3403,2.3418,2.3476,2.3498,2.3531,2.3574,2.3578,2.3618,2.364,2.3683,2.3699,2.376,2.3772,2.3783,2.3786,2.3782,2.3781,2.3799,2.3795,2.3794,2.3793,2.3793,2.3792,0,2.3294,2.3314,2.338,2.3421,2.3433,2.3474,2.351,2.3547,2.3565,2.3619,2.3632,2.3662,2.3713,2.3736,2.3799,2.3809,2.3879,2.3879,2.3865,2.3866,2.3901,2.3897,2.4016,2.4032,2.3942,2.3943,2.3944,0,2.3344,2.3384,2.3429,2.3456,2.3479,2.3524,2.3554,2.357,2.3601,2.3649,2.368,2.3731,2.3772,2.3854,2.3882,2.3931,2.3932,2.397,2.3939,2.3933,2.3931,2.3928,2.3932,2.3975,2.3976,2.3977,2.3978,0,2.3431,2.3438,2.348,2.3525,2.356,2.3597,2.3633,2.3656,2.3678,2.3713,2.3764,2.3796,2.3859,2.391,2.3959,2.3984,2.3985,2.3987,2.3998,2.3994,2.3983,2.3988,2.3879,2.3984,2.3983,2.3983,2.3983,2.3982,2.349,2.3525,2.3562,2.3608,2.3636,2.367,2.3706,2.3728,2.3771,2.3822,2.383,2.3885,2.3924,2.399,2.4016,2.406,2.405,2.4067,2.4071,2.4074,2.4076,2.3977,2.4069,2.4069,2.4069,2.4069,2.4069,0,2.3576,2.3599,2.3642,2.3691,2.3727,2.3723,2.3763,2.3794,2.3841,2.3876,2.3916,2.3975,2.4023,2.4055,2.4104,2.4132,2.4134,2.4145,2.4142,2.4148,2.4082,2.4067,2.4143,2.4143,2.4142,2.4142,2.4142,2.4142,2.3625,2.3684,2.3696,2.3769,2.3792,2.3844,2.3867,2.3897,2.3925,2.399,2.4029,2.4049,2.4083,2.4134,2.4178,2.4187,2.4204,2.4215,2.4223,2.416,2.4153,2.4145,2.4131,2.4219,2.4219,2.4285,2.4285,2.4286]},{"header":{"parameterUnit":"m.s-1","parameterCategory":1,"la1":30.2991,"la2":30.254,"lo1":-89.0895,"lo2":-89.0444,"dy":0.0017,"dx":0.0017,"nx":28,"ny":28,"refTime":"2024-07-11T03:00:00:Z","depth":0,"parameterNumber":3,"parameterNumberName":"V-component_of_WINDS"},"data":[0,0,0,0,0,0,0,0,0,0,0,0,0,0,0,0,0,0,0,0,0,0,0,0,0,0,0,0,0,0,0,0,0,0,0,0,0,0,0,0,0,0,0,0,0,0,0,0,0,0,0,0,0,0,0,0,0,0,3.4265,3.4264,0,3.4218,3.4217,3.4217,3.4232,3.4233,3.4234,3.4235,3.418,3.4178,3.4175,0,0,0,0,0,0,0,0,0,0,0,0,0,3.4361,3.4359,3.4265,3.4264,3.4264,3.4218,3.4217,3.4217,3.4232,3.4233,3.4234,3.4236,3.4181,3.4178,3.4175,0,0,0,0,0,0,0,0,0,0,0,0,0,3.4317,3.4359,3.4265,3.4266,3.4266,3.4218,3.4217,3.4216,3.4232,3.4233,3.4235,3.4236,3.4182,3.4178,3.4175,3.4121,0,0,3.4163,3.4162,0,0,0,0,0,0,0,0,3.432,3.4313,3.4267,3.4266,3.4266,3.4233,3.4231,3.4184,3.4231,3.4244,3.4235,3.4237,3.4196,3.4191,3.4179,3.4118,3.4116,3.4163,3.4161,3.4159,3.4158,0,0,0,0,0,0,0,3.4323,3.4316,3.4246,3.4266,3.4265,3.4267,3.4262,3.4222,3.4212,3.4243,3.4244,3.4239,3.4196,3.4182,3.4177,3.4115,3.4163,3.416,3.4158,3.4156,3.4006,3.4004,0,0,0,0,0,0,3.4327,3.4318,3.4248,3.4245,3.4297,3.4264,3.4259,3.4241,3.4212,3.4209,3.4238,3.424,3.4188,3.4182,3.4175,3.4109,3.4159,3.4156,3.4154,3.4008,3.4005,3.4003,0,0,0,0,0,0,3.4329,3.4321,3.425,3.4282,3.4273,3.426,3.4241,3.424,3.4226,3.4208,3.4206,3.4226,3.4189,3.4181,3.4134,3.4107,3.4154,3.4151,3.401,3.4007,3.4004,3.3977,0,0,0,0,0,0,3.4332,3.4321,3.4302,3.4281,3.4271,3.4211,3.4239,3.4238,3.4221,3.4223,3.4197,3.4194,3.4189,3.414,3.4131,3.4103,3.4148,3.4012,3.4008,3.4005,3.398,3.3973,3.3968,0,0,0,0,0,3.4335,3.4295,3.4301,3.4293,3.4248,3.421,3.4204,3.4201,3.4219,3.4198,3.4186,3.4194,3.4112,3.4135,3.4125,3.4096,3.4014,3.4009,3.4005,3.3982,3.3975,3.3968,0,0,0,0,0,0,3.4311,3.4293,3.4299,3.4252,3.4233,3.4213,3.4187,3.4193,3.4167,3.417,3.4166,3.416,3.4112,3.4099,3.4125,3.4041,3.4065,3.4059,3.4051,3.4043,3.4037,3.404,3.4145,0,0,0,0,0,3.4301,3.4274,3.4259,3.4218,3.4208,3.4199,3.4183,3.4183,3.4162,3.4153,3.4138,3.4115,3.4083,3.4063,3.4033,3.3979,3.3971,3.3953,3.3947,3.3942,3.3936,3.3904,3.3895,3.399,3.399,3.399,0,0,3.4279,3.4265,3.4248,3.4213,3.4198,3.4168,3.4192,3.4159,3.4136,3.4147,3.4103,3.409,3.4064,3.4013,3.399,3.4001,3.3909,3.3937,3.3934,3.393,3.3899,3.389,3.3882,3.3987,3.3988,3.3988,0,0,3.4222,3.4211,3.4175,3.416,3.4138,3.4132,3.4123,3.4102,3.4095,3.4051,3.4058,3.4029,3.3976,3.3957,3.394,3.3875,3.3881,3.3866,3.3833,3.3801,3.3794,3.3787,3.3762,3.3753,3.386,3.386,3.386,0,3.4197,3.4154,3.4155,3.4122,3.4105,3.4116,3.4078,3.4063,3.4031,3.4017,3.4032,3.3965,3.3948,3.3891,3.3875,3.3862,3.385,3.3868,3.3795,3.3789,3.3782,3.3758,3.3749,3.3858,3.3858,3.3858,3.3859,0,3.4122,3.4092,3.4065,3.4037,3.4017,3.3981,3.3975,3.3954,3.3956,3.3948,3.3901,3.3882,3.3848,3.3835,3.3835,3.3777,3.3785,3.3797,3.3821,3.3771,3.3748,3.3739,3.3855,3.3856,3.3857,3.3857,0,0,3.4048,3.4021,3.4011,3.3998,3.3974,3.3949,3.3913,3.3882,3.3863,3.3841,3.3808,3.3763,3.3774,3.3755,3.3753,3.3726,3.3673,3.3741,3.3741,3.3728,3.3605,3.3595,3.3584,3.3678,3.3676,3.3675,3.3607,0,3.3988,3.3928,3.3928,3.387,3.3841,3.3851,3.3819,3.3799,3.379,3.3762,3.3751,3.3719,3.3737,3.3725,3.3699,3.3685,3.3648,3.3691,3.3644,3.3643,3.3649,3.3572,3.3561,3.3498,3.3598,3.3596,3.3595,0,3.391,3.3887,3.3827,3.3807,3.3794,3.3766,3.3736,3.3711,3.3687,3.3683,3.3661,3.3664,3.3624,3.365,3.3594,3.3622,3.3604,3.3594,3.3591,3.3585,3.3615,3.3562,3.3478,3.3468,3.3582,3.3583,3.3584,0,3.386,3.3813,3.3771,3.376,3.3735,3.3714,3.3703,3.3682,3.3662,3.3636,3.3623,3.3591,3.3573,3.3547,3.354,3.3561,3.3483,3.3509,3.3475,3.3475,3.3457,3.3458,3.3367,3.3448,3.3448,3.3448,3.3449,0,3.3791,3.3754,3.3748,3.3722,3.368,3.3679,3.3636,3.3625,3.3606,3.3576,3.3582,3.3553,3.3547,3.3515,3.3509,3.3462,3.3454,3.3447,3.3445,3.3445,3.3446,3.3431,3.3435,3.3446,3.3446,3.3447,3.3447,0,3.3727,3.3722,3.3677,3.3658,3.3652,3.3621,3.3603,3.3577,3.3569,3.3531,3.3522,3.3508,3.3472,3.3463,3.3419,3.3414,3.3358,3.3361,3.3366,3.3366,3.3331,3.3334,3.3226,3.3211,3.3304,3.3303,3.3303,0,3.3683,3.3654,3.3633,3.3614,3.3602,3.3572,3.3553,3.3551,3.353,3.3501,3.3477,3.3442,3.3414,3.3354,3.3339,3.3305,3.3306,3.3271,3.3301,3.3301,3.3303,3.3304,3.33,3.3264,3.3263,3.3263,3.3262,0,3.3604,3.3603,3.3577,3.3549,3.3526,3.3504,3.3482,3.3466,3.346,3.3436,3.34,3.3378,3.3334,3.3298,3.3263,3.3248,3.3252,3.3253,3.3243,3.3241,3.3244,3.324,3.3348,3.3255,3.3256,3.3256,3.3256,3.3257,3.3547,3.3521,3.3502,3.3472,3.3456,3.3435,3.3409,3.3399,3.337,3.3335,3.3335,3.3295,3.327,3.3225,3.3208,3.3175,3.3185,3.3171,3.3167,3.3163,3.3159,3.3252,3.3169,3.3169,3.3169,3.3169,3.3169,0,3.3466,3.3455,3.3427,3.3397,3.3373,3.3383,3.3359,3.3337,3.3302,3.3281,3.3253,3.3211,3.3175,3.3158,3.3122,3.3099,3.31,3.3089,3.309,3.3085,3.3153,3.3164,3.3089,3.3089,3.3089,3.3089,3.3089,3.3089,3.3421,3.3378,3.3375,3.3323,3.3311,3.3274,3.3259,3.3239,3.3222,3.3175,3.3147,3.3137,3.3115,3.3078,3.3045,3.3041,3.3026,3.3014,3.301,3.3073,3.3081,3.3089,3.3099,3.3011,3.3011,3.2945,3.2945,3.2944]}]]